Lumberton, NC

12:41 AM EDT on October 19, 2017 (GMT -0400)
Lumberton Municipal

Weather History for KLBT - July, 2012

Change the Weather History Date:

Wednesday, July 25, 2012

  Actual Average Record
Temperature  
Mean Temperature 84 °F 81 °F  
Max Temperature 92 °F 91 °F 98 °F (2010)
Min Temperature 75 °F 72 °F 65 °F (2007)
Degree Days  
Heating Degree Days 0 0  
Month to date heating degree days 0 0  
Since 1 June heating degree days 0 0  
Since 1 July heating degree days 0 0  
Cooling Degree Days 19 16  
Month to date cooling degree days 463 400  
Year to date cooling degree days 1189 1038  
Since 1 June cooling degree days 783 788  
Growing Degree Days 33 (Base 50)    
Moisture  
Dew Point 73 °F    
Average Humidity 75    
Maximum Humidity 100    
Minimum Humidity 49    
Precipitation  
Precipitation 0.13 in 0.20 in 2.91 in (2002)
Month to date precipitation 5.43 4.30  
Year to date precipitation 27.53 23.71  
Sea Level Pressure  
Sea Level Pressure 29.92 in    
Wind  
Wind Speed 3 mph (West)    
Max Wind Speed 16 mph    
Max Gust Speed 20 mph    
Visibility 9 miles    
Events Rain    
T = Trace of Precipitation, MM = Missing Value Source: NWS Daily Summary

Daily Weather History Graph

Daily Weather History Graph

Search for Another Location

Airport or City:

Trip Planner

Search our weather history database for the weather conditions in past years. The results will help you decide how hot, cold, wet, or windy it might be!

Date:

Astronomy

Jul. 25, 2012 Rise Set
Actual Time 6:21 AM EDT 8:23 PM EDT
Civil Twilight 5:53 AM EDT 8:51 PM EDT
Nautical Twilight 5:19 AM EDT 9:25 PM EDT
Astronomical Twilight 4:42 AM EDT 10:02 PM EDT
Moon 1:03 PM EDT (7/25) No Moon Set
Length of Visible Light 14h 57m
Length of Day
14h 01m
Waxing Crescent, 42% of the Moon is Illuminated
Jul 25
Waxing Crescent
Jul 26
First Quarter
Aug 1
Full
Aug 9
Last Quarter
Aug 17
New

Hourly Weather History & Observations

Time (EDT) Temp. Heat Index Dew Point Humidity Pressure Visibility Wind Dir Wind Speed Gust Speed Precip Events Conditions
12:54 AM 78.1 °F - 73.9 °F 87% 29.91 in 10.0 mi West 11.5 mph - N/A   Clear
1:54 AM 78.1 °F - 73.0 °F 84% 29.91 in 10.0 mi West 10.4 mph - N/A   Overcast
2:54 AM 77.0 °F - 72.0 °F 84% 29.89 in 10.0 mi WSW 6.9 mph - N/A   Clear
3:54 AM 75.9 °F - 73.0 °F 91% 29.88 in 10.0 mi West 6.9 mph - N/A   Scattered Clouds
4:54 AM 75.9 °F - 73.0 °F 91% 29.88 in 10.0 mi West 4.6 mph - N/A   Overcast
5:54 AM 75.0 °F - 73.0 °F 94% 29.89 in 10.0 mi West 4.6 mph - N/A   Partly Cloudy
6:54 AM 75.0 °F - 73.0 °F 94% 29.91 in 10.0 mi Calm Calm - N/A   Mostly Cloudy
7:54 AM 77.0 °F - 73.9 °F 90% 29.95 in 10.0 mi WNW 9.2 mph - N/A   Mostly Cloudy
8:28 AM 75.2 °F - 73.4 °F 94% 29.97 in 2.0 mi WNW 8.1 mph - 0.04 in Rain Light Rain
8:37 AM 75.2 °F - 73.4 °F 94% 29.97 in 4.0 mi WNW 6.9 mph - 0.05 in Rain Rain
8:54 AM 75.9 °F - 73.9 °F 94% 29.95 in 5.0 mi Calm Calm - 0.06 in Rain Light Rain
9:54 AM 75.9 °F - 75.0 °F 97% 29.96 in 5.0 mi West 3.5 mph - 0.07 in Rain Light Rain
10:54 AM 79.0 °F - 75.0 °F 88% 29.97 in 10.0 mi NW 4.6 mph - 0.00 in   Partly Cloudy
11:54 AM 82.9 °F 89.4 °F 73.9 °F 74% 29.95 in 10.0 mi Variable 5.8 mph - N/A   Clear
12:54 PM 86.0 °F 92.2 °F 72.0 °F 63% 29.94 in 10.0 mi NE 5.8 mph - N/A   Partly Cloudy
1:54 PM 87.1 °F 91.3 °F 69.1 °F 55% 29.93 in 10.0 mi Calm Calm - N/A   Clear
2:54 PM 89.1 °F 92.9 °F 68.0 °F 50% 29.93 in 10.0 mi Calm Calm - N/A   Clear
3:54 PM 91.0 °F 95.6 °F 69.1 °F 48% 29.92 in 10.0 mi Calm Calm - N/A   Clear
4:54 PM 90.0 °F 94.5 °F 69.1 °F 50% 29.91 in 10.0 mi NW 3.5 mph - N/A   Clear
5:54 PM 89.1 °F 96.0 °F 72.0 °F 57% 29.91 in 10.0 mi West 3.5 mph - N/A   Clear
6:54 PM 87.1 °F 96.3 °F 75.0 °F 67% 29.91 in 10.0 mi Calm Calm - N/A   Clear
7:54 PM 84.9 °F 94.1 °F 75.9 °F 74% 29.91 in 10.0 mi Calm Calm - N/A   Clear
8:54 PM 82.0 °F 91.0 °F 78.1 °F 88% 29.91 in 10.0 mi South 4.6 mph - N/A   Clear
9:54 PM 80.1 °F 86.4 °F 78.1 °F 94% 29.92 in 8.0 mi Calm Calm - N/A   Clear
10:54 PM 80.1 °F 85.4 °F 75.9 °F 87% 29.92 in 8.0 mi Calm Calm - N/A   Clear
11:54 PM 79.0 °F - 75.0 °F 88% 29.92 in 8.0 mi Calm Calm - N/A   Clear